STARLINK-32640 (62198 NORAD) Tracking and Keplerian Element Data

This shows tracking and keplerian element data for the satellite.

Feedback or suggestion? Click here.




ElementValue
Catalog62198
NameSTARLINK-32640
Epoch Orbit947
Epoch Day34.35280014
Epoch Year2025
RAAN7.2001
Inclination43.0035
Eccentricity0.0001134
Argument of Perigee279.0261
Mean Anonmoly81.0464
Mean Motion15.32095844
Decay Rate-2.1E-07
L11 62198U 24229G 25034.35280014 -.00000021 00000+0 80371-5 0 9999
L22 62198 43.0035 7.2001 0001134 279.0261 81.0464 15.32095844 9473



Live tracking and technical data element details for STARLINK-32640 (NORAD 62198). STARLINK-32640 can be tracked NOW for your location showing map with azimuth and elevation plus other details from your city location.







IsCatalogInMostPopularTable: catalog: 62198, numindb: 14
Update: records affected: 1



GetName: 62198 STARLINK-32640

Hit Count: updated at: Sat, 24 May 2025 17:14:15 GMT